HOGFORS Weather Reports


time (UTC)temp
C
wind
direction
speed
KPH
gust
KPH
rain 1hr
cm
rain 24hr
cm
rain mn
cm
humidity
%
barometer
mb
20221207233041 -18 27 0.0 0.0 0.00 0.00 0.00 81 1003.2
20221207231544 -18 27 0.0 0.0 0.00 0.00 0.00 81 1003.3
20221207230031 -18 27 0.0 0.0 0.00 0.00 0.00 80 1003.3
20221207224527 -18 27 0.0 0.0 0.00 0.00 0.00 81 1003.3
20221207223022 -18 27 0.0 0.0 0.00 0.00 0.00 81 1003.7
20221207221517 -18 27 0.0 0.0 0.00 0.00 0.00 81 1003.8
20221207220014 -18 27 0.0 0.0 0.00 0.00 0.00 81 1003.9
20221207214509 -18 28 0.0 0.0 0.00 0.00 0.00 81 1004.1
20221207213004 -17 27 0.0 0.0 0.00 0.00 0.00 80 1004.0
20221207211600 -17 28 0.0 0.0 0.00 0.00 0.00 80 1004.1
20221207210055 -17 27 0.0 0.0 0.00 0.00 0.00 80 1004.3
20221207204554 -17 27 0.0 0.0 0.00 0.00 0.00 81 1004.6
20221207203053 -17 27 0.0 0.0 0.00 0.00 0.00 80 1004.5
20221207201554 -17 28 0.0 0.0 0.00 0.00 0.00 81 1004.4
20221207200037 -17 27 0.0 0.0 0.00 0.00 0.00 80 1004.5
20221207194532 -17 27 0.0 0.0 0.00 0.00 0.00 81 1004.5
20221207193030 -17 27 0.0 0.0 0.00 0.00 0.00 81 1004.6
20221207191528 -17 28 0.0 0.0 0.00 0.00 0.00 80 1004.7
20221207190021 -17 27 0.0 0.0 0.00 0.00 0.00 80 1004.7
20221207184513 -16 27 0.0 0.0 0.00 0.00 0.00 79 1004.8
20221207183012 -17 27 0.0 0.0 0.00 0.00 0.00 80 1004.9
20221207181512 -17 27 0.0 0.0 0.00 0.00 0.00 80 1004.9
20221207180000 -17 28 0.0 0.0 0.00 0.00 0.00 80 1004.9
20221207174613 -16 27 0.0 0.0 0.00 0.00 0.00 80 1005.1
20221207173052 -16 27 0.0 0.0 0.00 0.00 0.00 80 1005.2
20221207171550 -16 27 0.0 0.0 0.00 0.00 0.00 80 1005.2
20221207170043 -16 27 0.0 0.0 0.00 0.00 0.00 80 1005.4
20221207164539 -15 27 0.0 0.0 0.00 0.00 0.00 79 1005.4
20221207163034 -15 27 0.0 0.0 0.00 0.00 0.00 80 1005.6
20221207161530 -15 28 0.0 0.0 0.00 0.00 0.00 80 1005.6
20221207160031 -15 28 0.0 0.0 0.00 0.00 0.00 80 1005.9
20221207154526 -14 27 0.0 0.0 0.00 0.00 0.00 79 1005.9
20221207153021 -14 27 0.0 0.0 0.00 0.00 0.00 80 1006.2
20221207151511 -13 27 0.0 0.0 0.00 0.00 0.00 79 1006.1
20221207150007 -13 28 0.0 0.0 0.00 0.00 0.00 80 1006.2
20221207144510 -12 27 0.0 0.0 0.00 0.00 0.00 79 1006.3
20221207143059 -12 27 0.0 0.0 0.00 0.00 0.00 79 1006.4
20221207141558 -11 27 0.0 0.0 0.00 0.00 0.00 78 1006.4
20221207140050 -10 27 0.0 0.0 0.00 0.00 0.00 78 1006.6
20221207134545 -17 0.0 0.0 0.00 0.00 0.00 1006.7
20221207133041 -9 27 0.0 0.0 0.00 0.00 0.00 77 1006.8
20221207131537 -8 28 0.0 0.0 0.00 0.00 0.00 77 1006.9
20221207130033 -8 28 0.0 0.0 0.00 0.00 0.00 76 1006.9
20221207124528 -8 27 0.0 0.0 0.00 0.00 0.00 76 1007.0
20221207123024 -8 28 0.0 0.0 0.00 0.00 0.00 75 1007.0
20221207121519 -8 28 0.0 0.0 0.00 0.00 0.00 74 1007.2
20221207120020 -8 28 1.6 0.0 0.00 0.00 0.00 75 1007.3
20221207114513 -8 27 0.0 0.0 0.00 0.00 0.00 75 1007.4
20221207113007 -8 27 0.0 0.0 0.00 0.00 0.00 75 1007.7
20221207111501 -8 28 0.0 0.0 0.00 0.00 0.00 73 1007.6
20221207110112 -9 27 0.0 0.0 0.00 0.00 0.00 69 1007.7
20221207104552 -11 27 0.0 0.0 0.00 0.00 0.00 69 1008.1
20221207103048 -11 27 0.0 0.0 0.00 0.00 0.00 68 1008.1
20221207101544 -12 28 0.0 0.0 0.00 0.00 0.00 70 1008.2
20221207100040 -13 28 0.0 0.0 0.00 0.00 0.00 71 1008.2
20221207094540 -13 27 0.0 0.0 0.00 0.00 0.00 72 1008.4
20221207093033 -14 27 0.0 0.0 0.00 0.00 0.00 71 1008.5
20221207091527 -15 28 0.0 0.0 0.00 0.00 0.00 74 1008.7
20221207090028 -15 28 0.0 0.0 0.00 0.00 0.00 75 1008.7
20221207084524 -16 27 0.0 0.0 0.00 0.00 0.00 76 1008.6
20221207083017 -17 0.0 0.0 0.00 0.00 0.00 1008.7
20221207081509 -16 28 0.0 0.0 0.00 0.00 0.00 76 1009.0
20221207080018 -16 27 0.0 0.0 0.00 0.00 0.00 77 1009.0
20221207074621 -15 27 0.0 0.0 0.00 0.00 0.00 77 1009.0
20221207073127 -15 27 0.0 0.0 0.00 0.00 0.00 76 1009.1
20221207071559 -15 27 0.0 0.0 0.00 0.00 0.00 75 1009.0
20221207070051 -15 27 0.0 0.0 0.00 0.00 0.00 74 1009.0
20221207064546 -15 27 0.0 0.0 0.00 0.00 0.00 74 1008.9
20221207063042 -15 27 0.0 0.0 0.00 0.00 0.00 74 1008.8
20221207061536 -15 27 0.0 0.0 0.00 0.00 0.00 76 1008.7
20221207060055 -14 27 0.0 0.0 0.00 0.00 0.00 75 1008.6
20221207054535 -14 27 0.0 0.0 0.00 0.00 0.00 74 1008.7
20221207053032 -14 27 0.0 0.0 0.00 0.00 0.00 75 1008.7
20221207051533 -13 27 0.0 0.0 0.00 0.00 0.00 73 1008.9
20221207050024 -13 27 0.0 0.0 0.00 0.00 0.00 73 1009.0
20221207044525 -13 27 0.0 0.0 0.00 0.00 0.00 71 1009.0
20221207043020 -13 27 0.0 0.0 0.00 0.00 0.00 71 1009.1
20221207041519 -13 27 0.0 0.0 0.00 0.00 0.00 71 1009.2
20221207040019 -12 27 0.0 0.0 0.00 0.00 0.00 72 1009.2
20221207034513 -12 27 0.0 0.0 0.00 0.00 0.00 70 1009.4
20221207033011 -12 27 0.0 0.0 0.00 0.00 0.00 68 1009.6
20221207031511 -11 28 0.0 0.0 0.00 0.00 0.00 68 1009.6
20221207030010 -11 28 0.0 0.0 0.00 0.00 0.00 66 1009.5
20221207024507 -10 28 0.0 0.0 0.00 0.00 0.00 62 1009.8
20221207023007 -10 27 0.0 0.0 0.00 0.00 0.00 61 1009.8
20221207021506 -10 28 0.0 0.0 0.00 0.00 0.00 60 1009.9
20221207020005 -10 28 0.0 0.0 0.00 0.00 0.00 59 1010.0
20221207014503 -9 28 1.6 0.0 0.00 0.00 0.00 58 1010.0
20221207013103 -10 35 1.6 0.0 0.00 0.00 0.00 59 1010.0
20221207011557 -11 28 3.2 0.0 0.00 0.00 0.00 64 1010.1
20221207010055 -12 27 0.0 0.0 0.00 0.00 0.00 68 1010.2
20221207004554 -12 27 0.0 0.0 0.00 0.00 0.00 69 1010.3
20221207003052 -12 27 0.0 0.0 0.00 0.00 0.00 69 1010.3
20221207001549 -12 27 0.0 0.0 0.00 0.00 0.00 68 1010.4
20221207000048 -11 27 0.0 0.0 0.00 0.00 0.00 66 1010.4
20221206234550 -11 27 0.0 0.0 0.00 0.00 0.00 66 1010.5